Jefferson, NC

6:03 PM EDT on May 24, 2018 (GMT -0400)
Ashe County

Weather History for KGEV - January, 2014

Change the Weather History Date:

Sunday, January 19, 2014

  Actual Average Record
Temperature  
Mean Temperature 32 °F -  
Max Temperature 35 °F 40 °F 58 °F (1974)
Min Temperature 30 °F 23 °F -3 °F (1976)
Degree Days  
Heating Degree Days 32    
Moisture  
Dew Point 18 °F    
Average Humidity 55    
Maximum Humidity 77    
Minimum Humidity 39    
Precipitation  
Precipitation 0.00 in - - ()
Sea Level Pressure  
Sea Level Pressure 29.84 in    
Wind  
Wind Speed 12 mph (West)    
Max Wind Speed 25 mph    
Max Gust Speed 37 mph    
Visibility 10 miles    
Events Snow    
Averages and records for this station are not official NWS values.
T = Trace of Precipitation, MM = Missing Value Source: NWS Daily Summary

Daily Weather History Graph

Daily Weather History Graph

Search for Another Location

Airport or City:

Astronomy

Jan. 19, 2014 Rise Set
Actual Time 7:35 AM EST 5:38 PM EST
Civil Twilight 7:07 AM EST 6:05 PM EST
Nautical Twilight 6:35 AM EST 6:37 PM EST
Astronomical Twilight 6:04 AM EST 7:08 PM EST
Moon 9:07 PM EST (1/19) 9:11 AM EST (1/19)
Length of Visible Light 10h 58m
Length of Day
10h 02m
Waning Gibbous, 89% of the Moon is Illuminated
Jan 19
Waning Gibbous
Jan 24
Last Quarter
Jan 30
New
Feb 6
First Quarter
Feb 14
Full

Hourly Weather History & Observations

Time (EST) Temp. Windchill Dew Point Humidity Pressure Visibility Wind Dir Wind Speed Gust Speed Precip Events Conditions
12:15 AM 33.1 °F 26.1 °F 15.8 °F 49% 29.80 in 10.0 mi WSW 8.1 mph 19.6 mph N/A   Overcast
12:35 AM 34.2 °F 24.8 °F 12.9 °F 42% 29.79 in 10.0 mi West 13.8 mph 24.2 mph N/A   Overcast
12:55 AM 34.9 °F 24.9 °F 12.4 °F 40% 29.78 in 10.0 mi West 16.1 mph 28.8 mph N/A   Overcast
1:15 AM 35.1 °F 23.8 °F 12.2 °F 39% 29.78 in 10.0 mi West 20.7 mph 31.1 mph N/A   Overcast
1:35 AM 35.1 °F 25.9 °F 12.2 °F 39% 29.79 in 10.0 mi West 13.8 mph 28.8 mph N/A   Overcast
1:55 AM 34.7 °F 26.9 °F 12.2 °F 39% 29.79 in 10.0 mi West 10.4 mph 31.1 mph N/A   Mostly Cloudy
2:15 AM 34.3 °F 27.7 °F 13.1 °F 42% 29.79 in 10.0 mi WSW 8.1 mph 21.9 mph N/A   Overcast
2:35 AM 34.3 °F 26.5 °F 14.4 °F 44% 29.79 in 10.0 mi West 10.4 mph 24.2 mph N/A   Overcast
2:55 AM 34.2 °F 25.2 °F 13.3 °F 42% 29.79 in 10.0 mi West 12.7 mph 21.9 mph N/A   Overcast
3:15 AM 34.2 °F 24.8 °F 14.0 °F 44% 29.79 in 10.0 mi West 13.8 mph 18.4 mph N/A   Overcast
3:35 AM 34.2 °F 30.0 °F 14.4 °F 44% 29.79 in 10.0 mi WSW 4.6 mph - N/A   Overcast
3:55 AM 34.2 °F 25.7 °F 14.0 °F 44% 29.78 in 10.0 mi WSW 11.5 mph 16.1 mph N/A   Overcast
4:15 AM 34.0 °F 27.2 °F 14.5 °F 45% 29.79 in 10.0 mi WSW 8.1 mph - N/A   Overcast
4:35 AM 34.0 °F 24.6 °F 16.2 °F 48% 29.79 in 10.0 mi West 13.8 mph 19.6 mph N/A   Overcast
4:55 AM 33.3 °F 25.7 °F 16.9 °F 51% 29.79 in 10.0 mi West 9.2 mph 18.4 mph N/A   Overcast
5:15 AM 32.9 °F 23.2 °F 16.7 °F 51% 29.78 in 10.0 mi West 13.8 mph 20.7 mph N/A   Overcast
5:40 AM 32.0 °F 23.6 °F 16.9 °F 54% 29.79 in 10.0 mi West 10.4 mph 18.4 mph N/A   Overcast
5:55 AM 31.8 °F 22.3 °F 18.3 °F 57% 29.79 in 10.0 mi West 12.7 mph 18.4 mph N/A   Overcast
6:15 AM 30.7 °F 20.0 °F 21.2 °F 68% 29.79 in 10.0 mi West 15.0 mph 23.0 mph N/A Snow Light Snow
6:35 AM 30.0 °F 20.0 °F 22.5 °F 73% 29.80 in 5.0 mi West 12.7 mph 16.1 mph N/A Snow Light Snow
6:55 AM 30.0 °F 18.7 °F 23.0 °F 75% 29.80 in 5.0 mi West 16.1 mph 23.0 mph N/A Snow Light Snow
7:20 AM 30.2 °F 20.2 °F 23.7 °F 77% 29.80 in 5.0 mi West 12.7 mph 24.2 mph N/A Snow Light Snow
7:35 AM 30.4 °F 22.2 °F 23.4 °F 75% 29.80 in 10.0 mi WSW 9.2 mph 24.2 mph N/A   Overcast
7:55 AM 30.2 °F 18.9 °F 22.6 °F 73% 29.80 in 10.0 mi West 16.1 mph 26.5 mph N/A   Mostly Cloudy
8:15 AM 30.7 °F 18.5 °F 21.4 °F 68% 29.81 in 10.0 mi West 19.6 mph 26.5 mph N/A   Mostly Cloudy
8:35 AM 31.1 °F 20.9 °F 21.0 °F 66% 29.82 in 10.0 mi West 13.8 mph 27.6 mph N/A   Overcast
8:55 AM 31.1 °F 21.9 °F 21.4 °F 67% 29.83 in 10.0 mi West 11.5 mph 16.1 mph N/A   Overcast
9:15 AM 31.8 °F 23.9 °F 21.2 °F 65% 29.83 in 10.0 mi WNW 9.2 mph - N/A   Overcast
9:35 AM 32.0 °F 25.6 °F 21.0 °F 64% 29.84 in 10.0 mi West 6.9 mph 21.9 mph N/A   Scattered Clouds
9:55 AM 32.4 °F 23.5 °F 21.7 °F 65% 29.85 in 10.0 mi WNW 11.5 mph 21.9 mph N/A Snow Light Snow
10:15 AM 32.4 °F 20.9 °F 21.7 °F 65% 29.86 in 10.0 mi West 18.4 mph 26.5 mph N/A Snow Light Snow
10:40 AM 32.2 °F 21.1 °F 21.9 °F 66% 29.86 in 10.0 mi West 17.3 mph 36.8 mph N/A Snow Light Snow
10:55 AM 32.0 °F 23.6 °F 21.9 °F 66% 29.87 in 10.0 mi West 10.4 mph 28.8 mph N/A   Overcast
11:15 AM 32.0 °F 22.1 °F 21.7 °F 66% 29.87 in 10.0 mi West 13.8 mph 29.9 mph N/A   Overcast
11:35 AM 32.0 °F 18.6 °F 21.2 °F 64% 29.87 in 10.0 mi West 25.3 mph 32.2 mph N/A   Overcast
11:55 AM 31.8 °F 19.0 °F 21.6 °F 66% 29.87 in 10.0 mi West 23.0 mph 34.5 mph N/A   Overcast
12:15 PM 31.6 °F 21.2 °F 21.6 °F 66% 29.87 in 10.0 mi WNW 15.0 mph 32.2 mph N/A   Overcast
12:35 PM 32.0 °F 21.2 °F 21.4 °F 65% 29.87 in 10.0 mi West 16.1 mph 27.6 mph N/A   Overcast
12:55 PM 31.6 °F 19.7 °F 21.0 °F 65% 29.86 in 10.0 mi West 19.6 mph 29.9 mph N/A   Overcast
1:15 PM 31.6 °F 20.7 °F 20.3 °F 63% 29.87 in 10.0 mi WNW 16.1 mph 33.4 mph N/A   Overcast
1:35 PM 32.0 °F 22.5 °F 20.1 °F 62% 29.87 in 10.0 mi West 12.7 mph 23.0 mph N/A   Overcast
1:55 PM 32.0 °F 21.6 °F 19.9 °F 61% 29.86 in 10.0 mi West 15.0 mph 23.0 mph N/A   Overcast
2:15 PM 32.0 °F 24.8 °F 19.6 °F 60% 29.87 in 10.0 mi West 8.1 mph 26.5 mph N/A   Overcast
2:35 PM 32.0 °F 23.0 °F 19.9 °F 61% 29.88 in 10.0 mi West 11.5 mph 21.9 mph N/A   Overcast
2:55 PM 33.3 °F 27.9 °F 20.1 °F 59% 29.87 in 10.0 mi WSW 5.8 mph 21.9 mph N/A   Overcast
3:15 PM 33.1 °F 26.9 °F 20.1 °F 59% 29.88 in 10.0 mi West 6.9 mph - N/A   Mostly Cloudy
3:35 PM 34.2 °F 28.2 °F 20.1 °F 57% 29.88 in 10.0 mi WSW 6.9 mph - N/A   Scattered Clouds
3:55 PM 34.9 °F 28.3 °F 19.8 °F 54% 29.88 in 10.0 mi West 8.1 mph - N/A   Scattered Clouds
4:15 PM 35.1 °F 26.9 °F 19.9 °F 54% 29.89 in 10.0 mi WSW 11.5 mph 17.3 mph N/A   Clear
4:35 PM 35.4 °F 27.3 °F 19.4 °F 52% 29.89 in 10.0 mi West 11.5 mph 18.4 mph N/A   Clear
4:55 PM 35.2 °F 28.1 °F 19.4 °F 53% 29.89 in 10.0 mi West 9.2 mph - N/A   Clear
5:15 PM 34.7 °F 29.6 °F 19.4 °F 54% 29.90 in 10.0 mi West 5.8 mph - N/A   Clear
5:35 PM 34.0 °F 28.0 °F 19.4 °F 55% 29.89 in 10.0 mi West 6.9 mph - N/A   Clear
5:55 PM 33.4 °F 28.1 °F 19.4 °F 56% 29.89 in 10.0 mi West 5.8 mph - N/A   Clear
6:15 PM 33.3 °F 27.1 °F 19.2 °F 56% 29.89 in 10.0 mi WSW 6.9 mph - N/A   Clear
6:35 PM 33.1 °F 24.9 °F 18.5 °F 55% 29.89 in 10.0 mi West 10.4 mph - N/A   Clear
6:55 PM 33.1 °F 28.7 °F 18.7 °F 56% 29.89 in 10.0 mi WSW 4.6 mph - N/A   Clear
7:15 PM 33.3 °F 25.1 °F 19.0 °F 56% 29.89 in 10.0 mi West 10.4 mph 19.6 mph N/A   Clear
7:35 PM 33.1 °F 26.1 °F 18.3 °F 55% 29.89 in 10.0 mi WSW 8.1 mph - N/A   Clear
7:55 PM 33.1 °F 27.7 °F 17.4 °F 53% 29.89 in 10.0 mi West 5.8 mph - N/A   Clear
8:15 PM 33.3 °F 27.9 °F 16.0 °F 49% 29.88 in 10.0 mi West 5.8 mph - N/A   Clear
8:35 PM 33.3 °F 25.7 °F 15.6 °F 48% 29.88 in 10.0 mi West 9.2 mph - N/A   Clear
8:55 PM 33.3 °F 24.1 °F 15.4 °F 48% 29.88 in 10.0 mi West 12.7 mph 18.4 mph N/A   Clear
9:15 PM 33.8 °F 24.8 °F 14.5 °F 45% 29.88 in 10.0 mi West 12.7 mph 23.0 mph N/A   Clear
9:35 PM 33.8 °F 25.3 °F 14.7 °F 46% 29.88 in 10.0 mi West 11.5 mph 21.9 mph N/A   Clear
9:55 PM 33.8 °F 25.3 °F 14.0 °F 44% 29.88 in 10.0 mi West 11.5 mph 20.7 mph N/A   Clear
10:15 PM 34.0 °F 24.6 °F 13.6 °F 43% 29.87 in 10.0 mi West 13.8 mph 23.0 mph N/A   Clear
10:35 PM 34.0 °F 26.0 °F 14.0 °F 44% 29.86 in 10.0 mi West 10.4 mph - N/A   Clear
10:55 PM 34.0 °F 21.3 °F 14.7 °F 45% 29.86 in 10.0 mi West 25.3 mph 34.5 mph N/A   Clear
11:15 PM 33.4 °F 21.1 °F 15.8 °F 48% 29.86 in 10.0 mi West 23.0 mph 29.9 mph N/A   Clear
11:35 PM 33.4 °F 23.5 °F 16.0 °F 49% 29.86 in 10.0 mi West 15.0 mph 26.5 mph N/A   Clear
11:55 PM 33.6 °F 22.9 °F 15.4 °F 47% 29.84 in 10.0 mi West 17.3 mph 26.5 mph N/A   Clear